This demonstration page uses our WeatherBlox Daily Observations layout. Learn more.

Left ArrowRight Arrow

34.16533, -84.80231

Hourly Observations for July 3, 2020

Temp ( °F °C ) Dew Point ( °F °C ) Humidity (%) Winds ( mph kmh ) Pressure ( in mb ) Visibility ( mi km ) Precip ( " mm )
12:53 am 00:53 Clear 74 23.3 71 21.7 91 91 Calm 29.91 1013 10 16 0.00 0.00
1:53 am 01:53 Partly Cloudy 73 22.8 71 21.7 94 94 Calm 29.92 1013 10 16 0.00 0.00
2:53 am 02:53 Mostly Clear 74 23.3 71 21.7 91 91 Calm 29.91 1013 10 16 0.00 0.00
3:53 am 03:53 Cloudy 74 23.3 71 21.7 91 91 Calm 29.92 1013 10 16 0.00 0.00
4:53 am 04:53 Mostly Clear 72 22.2 70 21.1 94 94 Calm 29.92 1013 9 14 0.00 0.00
5:53 am 05:53 Clear 72 22.2 69 20.6 91 91 Calm 29.92 1013 9 14 0.00 0.00
6:53 am 06:53 Mostly Sunny 71 21.7 68 20 90 90 Calm 29.93 1013 8 13 0.00 0.00
7:53 am 07:53 Partly Cloudy 75 23.9 72 22.2 90 90 Calm 29.94 1014 9 14 0.00 0.00
8:53 am 08:53 Sunny 79 26.1 72 22.2 79 79 NE 3 6 29.96 1015 10 16 0.00 0.00
9:53 am 09:53 Mostly Cloudy 82 27.8 72 22.2 72 72 Calm 29.97 1015 10 16 0.00 0.00
10:53 am 10:53 Sunny 86 30 72 22.2 63 63 NE 7 11 29.96 1015 10 16 0.00 0.00
11:53 am 11:53 Sunny 88 31.1 71 21.7 57 57 NE 6 9 29.96 1014 10 16 0.00 0.00
12:53 pm 12:53 Sunny 90 32.2 69 20.6 50 50 VRB 5 7 29.94 1014 10 16 0.00 0.00
1:53 pm 13:53 Sunny 92 33.3 68 20 46 46 VRB 6 9 29.93 1014 10 16 0.00 0.00
2:53 pm 14:53 Mostly Sunny 92 33.3 68 20 46 46 SSE 5 7 29.91 1013 10 16 0.00 0.00
3:53 pm 15:53 Partly Cloudy 93 33.9 68 20 44 44 VRB 5 7 29.89 1012 10 16 0.00 0.00
4:53 pm 16:53 Mostly Sunny 91 32.8 68 20 47 47 ESE 3 6 29.88 1012 10 16 0.00 0.00
5:53 pm 17:53 Sunny 94 34.4 67 19.4 41 41 Calm 29.85 1011 10 16 0.00 0.00
6:53 pm 18:53 Partly Cloudy 90 32.2 69 20.6 50 50 Calm 29.85 1011 10 16 0.00 0.00
7:53 pm 19:53 Sunny 83 28.3 73 22.8 72 72 Calm 29.86 1011 10 16 0.00 0.00
8:53 pm 20:53 Partly Cloudy 80 26.7 72 22.2 76 76 Calm 29.89 1012 10 16 0.00 0.00
9:42 pm 21:42 Mostly Cloudy with Thunderstorms 83 28.3 70 21.1 65 65 VRB 3 6 29.90 1013 10 16 0.00 0.00
9:53 pm 21:53 Mostly Cloudy with Thunderstorms 80 26.7 68 20 67 67 SSE 16 26 29.91 1013 10 16 0.00 0.00
10:11 pm 22:11 Cloudy with Heavy Rain 76 24.4 69 20.6 79 79 S 10 17 29.93 1014 3 4 0.16 4.06
10:20 pm 22:20 Cloudy with Light Rain 76 24.4 70 21.1 82 82 SSW 6 9 29.93 1014 7 11 0.17 4.32
10:53 pm 22:53 Cloudy 75 23.9 72 22.2 90 90 Calm 29.92 1013 8 13 0.17 4.32
11:53 pm 23:53 Mostly Cloudy 75 23.9 72 22.2 90 90 Calm 29.92 1013 9 14 0.00 0.00

Powered by AerisWeather